Starlink 5341

operational
NORAD ID: 55287 Int'l Des: 2023-010 Owner: SPXS Country: US Constellation: starlink
LEOCIRCULAR

About Starlink 5341

Description loading...

Live Position

Loading 3D Globe...

Upcoming Passes

Altitude History

Altitude vs Time

uPlot chart will show altitude changes over time

Two-Line Element Set

1 55287U 23010U 26036.55942059 .00000248 00000-0 28597-4 0 9998
2 55287 69.9993 85.6165 0003071 270.9171 89.1637 14.98332384168940
Epoch: Feb 5, 2026 • Age: 11 hours

Current Status

Altitude 574.2 km
Velocity 7.57 km/s
Sub-Earth Point 13.48°N, 57.34°W
Launch Date Jan 19, 2023
Age 3 years
Type internet

Technical Details

Classification Payload
Mass 305.00 kg
Dry Mass 290.00 kg
Total Mass 305.00 kg
Length 0.20 m
Diameter 2.80 m
Span 9.00 m
Shape Box + pan
Manufacturer SPXS
Bus Type Starlink
Phase Status In Orbit
Owner/State SPXS/US

Large Constellations

Loading constellations...